Auburn, IN

2:53 AM EDT on June 26, 2017 (GMT -0400)
Auburn

Weather History for KGWB - October, 2012

Change the Weather History Date:

Wednesday, October 31, 2012

  Actual Average (KFWA) Record (KFWA)
Temperature  
Mean Temperature 38 °F -  
Max Temperature 42 °F 59 °F 82 °F (1950)
Min Temperature 35 °F 40 °F 19 °F (1988)
Degree Days  
Heating Degree Days 26    
Moisture  
Dew Point 35 °F    
Average Humidity 83    
Maximum Humidity 93    
Minimum Humidity 70    
Precipitation  
Precipitation 0.00 in - - ()
Sea Level Pressure  
Sea Level Pressure 29.67 in    
Wind  
Wind Speed 12 mph (WNW)    
Max Wind Speed 17 mph    
Max Gust Speed 29 mph    
Visibility 9 miles    
Events Rain    
Averages and records for this station are not official NWS values.
T = Trace of Precipitation, MM = Missing Value Source: NWS Daily Summary

Daily Weather History Graph

Daily Weather History Graph

Search for Another Location

Airport or City:

Trip Planner

Search our weather history database for the weather conditions in past years. The results will help you decide how hot, cold, wet, or windy it might be!

Date:

Astronomy

Oct. 31, 2012 Rise Set
Actual Time 8:11 AM EDT 6:36 PM EDT
Civil Twilight 7:42 AM EDT 7:04 PM EDT
Nautical Twilight 7:09 AM EDT 7:37 PM EDT
Astronomical Twilight 6:37 AM EDT 8:09 PM EDT
Moon 7:45 PM EDT (10/31) 9:52 AM EDT (10/31)
Length of Visible Light 11h 22m
Length of Day
10h 25m
Full, 97% of the Moon is Illuminated
Oct 31
Full
Nov 6
Last Quarter
Nov 13
New
Nov 20
First Quarter
Nov 28
Full

Hourly Weather History & Observations

Time (EDT) Temp. Windchill Dew Point Humidity Pressure Visibility Wind Dir Wind Speed Gust Speed Precip Events Conditions
12:15 AM 37.4 °F 29.3 °F 33.8 °F 87% 29.62 in 7.0 mi NW 12.7 mph 18.4 mph N/A Rain Light Rain
12:35 AM 37.4 °F 28.5 °F 33.8 °F 87% 29.62 in 7.0 mi NW 15.0 mph - N/A   Drizzle
12:55 AM 37.4 °F 31.4 °F 33.8 °F 87% 29.61 in 7.0 mi NW 8.1 mph 18.4 mph N/A   Overcast
1:35 AM 37.4 °F 30.3 °F 33.8 °F 87% 29.61 in 10.0 mi NW 10.4 mph 16.1 mph N/A   Overcast
1:55 AM 37.4 °F 29.3 °F 33.8 °F 87% 29.61 in 10.0 mi NW 12.7 mph 20.7 mph N/A   Overcast
2:15 AM 37.4 °F 30.3 °F 33.8 °F 87% 29.61 in 10.0 mi NW 10.4 mph - N/A   Overcast
2:35 AM 37.4 °F 30.3 °F 35.6 °F 93% 29.61 in 7.0 mi NW 10.4 mph - N/A   Overcast
2:55 AM 37.4 °F 30.8 °F 33.8 °F 87% 29.61 in 10.0 mi NW 9.2 mph 16.1 mph N/A   Overcast
3:15 AM 37.4 °F 29.8 °F 33.8 °F 87% 29.61 in 10.0 mi NW 11.5 mph 17.3 mph N/A   Overcast
3:35 AM 37.4 °F 29.8 °F 33.8 °F 87% 29.61 in 10.0 mi NW 11.5 mph 16.1 mph N/A   Overcast
3:55 AM 37.4 °F 29.3 °F 33.8 °F 87% 29.61 in 10.0 mi NW 12.7 mph - N/A   Overcast
4:15 AM 37.4 °F 29.3 °F 33.8 °F 87% 29.61 in 10.0 mi NW 12.7 mph 19.6 mph N/A   Overcast
4:35 AM 37.4 °F 30.3 °F 33.8 °F 87% 29.61 in 10.0 mi NW 10.4 mph - N/A   Overcast
4:55 AM 37.4 °F 29.3 °F 33.8 °F 87% 29.61 in 10.0 mi NW 12.7 mph - N/A   Overcast
5:15 AM 37.4 °F 30.3 °F 33.8 °F 87% 29.62 in 10.0 mi NW 10.4 mph 19.6 mph N/A   Drizzle
5:35 AM 37.4 °F 30.3 °F 33.8 °F 87% 29.63 in 5.0 mi NW 10.4 mph 18.4 mph N/A Rain Rain
5:55 AM 37.4 °F 31.4 °F 33.8 °F 87% 29.63 in 7.0 mi WNW 8.1 mph 16.1 mph N/A   Drizzle
6:15 AM 35.6 °F 28.6 °F 33.8 °F 93% 29.63 in 7.0 mi WNW 9.2 mph - N/A Rain Light Rain
6:35 AM 35.6 °F 29.2 °F 33.8 °F 93% 29.63 in 7.0 mi WNW 8.1 mph - N/A   Drizzle
6:55 AM 35.6 °F 28.6 °F 33.8 °F 93% 29.64 in 4.0 mi WNW 9.2 mph - N/A Rain Light Rain
7:15 AM 35.6 °F 29.2 °F 33.8 °F 93% 29.64 in 5.0 mi WNW 8.1 mph - N/A Rain Light Rain
7:35 AM 37.4 °F 30.3 °F 33.8 °F 87% 29.64 in 7.0 mi WNW 10.4 mph 18.4 mph N/A Rain Light Rain
7:55 AM 37.4 °F 30.3 °F 33.8 °F 87% 29.64 in 5.0 mi NW 10.4 mph - N/A Rain Rain
8:15 AM 35.6 °F 28.6 °F 33.8 °F 93% 29.65 in 5.0 mi WNW 9.2 mph - N/A Rain Light Rain
8:35 AM 35.6 °F 28.6 °F 33.8 °F 93% 29.65 in 3.0 mi WNW 9.2 mph - N/A   Drizzle
8:55 AM 37.4 °F 30.8 °F 33.8 °F 87% 29.65 in 5.0 mi WNW 9.2 mph - N/A   Drizzle
9:15 AM 37.4 °F 29.8 °F 33.8 °F 87% 29.65 in 7.0 mi WNW 11.5 mph 18.4 mph N/A Rain Light Rain
9:35 AM 37.4 °F 30.3 °F 33.8 °F 87% 29.65 in 10.0 mi NW 10.4 mph 16.1 mph N/A   Light Drizzle
9:55 AM 37.4 °F 29.8 °F 33.8 °F 87% 29.66 in 10.0 mi NW 11.5 mph - N/A   Light Drizzle
10:15 AM 37.4 °F 28.5 °F 33.8 °F 87% 29.66 in 10.0 mi NW 15.0 mph 18.4 mph N/A   Overcast
10:35 AM 37.4 °F 29.8 °F 35.6 °F 93% 29.66 in 10.0 mi NW 11.5 mph - N/A   Overcast
10:55 AM 39.2 °F 30.8 °F 35.6 °F 87% 29.66 in 10.0 mi NW 15.0 mph 20.7 mph N/A   Overcast
11:15 AM 39.2 °F 30.5 °F 33.8 °F 81% 29.66 in 10.0 mi NW 16.1 mph 20.7 mph N/A   Overcast
11:35 AM 41.0 °F 33.5 °F 35.6 °F 81% 29.66 in 10.0 mi NW 13.8 mph 18.4 mph N/A   Overcast
11:55 AM 41.0 °F 32.5 °F 35.6 °F 81% 29.67 in 10.0 mi WNW 17.3 mph 21.9 mph N/A   Overcast
12:15 PM 41.0 °F 33.9 °F 35.6 °F 81% 29.67 in 10.0 mi WNW 12.7 mph 21.9 mph N/A   Overcast
12:35 PM 41.0 °F 33.1 °F 35.6 °F 81% 29.67 in 10.0 mi NW 15.0 mph - N/A   Overcast
12:55 PM 42.8 °F 35.8 °F 35.6 °F 76% 29.67 in 10.0 mi NW 13.8 mph 20.7 mph N/A   Overcast
1:15 PM 42.8 °F 37.0 °F 35.6 °F 76% 29.67 in 10.0 mi NW 10.4 mph 16.1 mph N/A   Overcast
1:35 PM 42.8 °F 35.1 °F 35.6 °F 76% 29.67 in 10.0 mi NW 16.1 mph 21.9 mph N/A   Overcast
1:55 PM 42.8 °F 35.4 °F 33.8 °F 70% 29.66 in 10.0 mi WNW 15.0 mph 20.7 mph N/A   Overcast
2:15 PM 42.8 °F 35.8 °F 33.8 °F 70% 29.67 in 10.0 mi WNW 13.8 mph 17.3 mph N/A   Overcast
2:35 PM 42.8 °F 36.2 °F 33.8 °F 70% 29.67 in 10.0 mi NW 12.7 mph 20.7 mph N/A   Overcast
2:55 PM 42.8 °F 36.6 °F 33.8 °F 70% 29.67 in 10.0 mi WNW 11.5 mph - N/A   Overcast
3:15 PM 42.8 °F 35.4 °F 33.8 °F 70% 29.67 in 10.0 mi WNW 15.0 mph 21.9 mph N/A   Overcast
3:35 PM 42.8 °F 35.8 °F 33.8 °F 70% 29.67 in 10.0 mi WNW 13.8 mph 19.6 mph N/A   Overcast
3:55 PM 42.8 °F 34.8 °F 33.8 °F 70% 29.67 in 10.0 mi NW 17.3 mph - N/A   Overcast
4:15 PM 42.8 °F 34.8 °F 33.8 °F 70% 29.68 in 10.0 mi WNW 17.3 mph 25.3 mph N/A   Overcast
4:35 PM 42.8 °F 35.4 °F 33.8 °F 70% 29.68 in 10.0 mi NW 15.0 mph 28.8 mph N/A   Overcast
4:55 PM 42.8 °F 36.2 °F 33.8 °F 70% 29.69 in 10.0 mi WNW 12.7 mph 20.7 mph N/A   Overcast
5:15 PM 42.8 °F 35.4 °F 35.6 °F 76% 29.69 in 10.0 mi WNW 15.0 mph 18.4 mph N/A   Overcast
5:35 PM 42.8 °F 36.2 °F 35.6 °F 76% 29.70 in 10.0 mi WNW 12.7 mph 16.1 mph N/A   Overcast
5:55 PM 41.0 °F 34.3 °F 35.6 °F 81% 29.71 in 10.0 mi WNW 11.5 mph 19.6 mph N/A   Overcast
6:35 PM 41.0 °F 33.9 °F 37.4 °F 87% 29.72 in 4.0 mi WNW 12.7 mph 20.7 mph N/A Rain Light Rain
6:55 PM 41.0 °F 32.5 °F 37.4 °F 87% 29.72 in 5.0 mi WNW 17.3 mph 21.9 mph N/A Rain Light Rain
7:35 PM 39.2 °F 31.2 °F 35.6 °F 87% 29.73 in 10.0 mi WNW 13.8 mph - N/A   Overcast
7:55 PM 39.2 °F 32.0 °F 35.6 °F 87% 29.73 in 10.0 mi WNW 11.5 mph 17.3 mph N/A Rain Light Rain
8:35 PM 41.0 °F 33.5 °F 35.6 °F 81% 29.74 in 10.0 mi WNW 13.8 mph 20.7 mph N/A   Light Drizzle
8:55 PM 41.0 °F 33.9 °F 35.6 °F 81% 29.75 in 10.0 mi WNW 12.7 mph 21.9 mph N/A   Light Drizzle
9:15 PM 41.0 °F 33.9 °F 35.6 °F 81% 29.75 in 10.0 mi WNW 12.7 mph 17.3 mph N/A   Light Drizzle
9:35 PM 41.0 °F 33.1 °F 35.6 °F 81% 29.76 in 7.0 mi WNW 15.0 mph 18.4 mph N/A   Light Drizzle
9:55 PM 41.0 °F 33.1 °F 35.6 °F 81% 29.76 in 10.0 mi WNW 15.0 mph - N/A   Overcast
10:15 PM 41.0 °F 33.9 °F 35.6 °F 81% 29.76 in 10.0 mi WNW 12.7 mph 18.4 mph N/A   Overcast
10:35 PM 41.0 °F 33.9 °F 35.6 °F 81% 29.76 in 10.0 mi WNW 12.7 mph 19.6 mph N/A   Overcast
10:55 PM 41.0 °F 34.7 °F 35.6 °F 81% 29.76 in 10.0 mi WNW 10.4 mph 21.9 mph N/A   Light Drizzle
11:15 PM 41.0 °F 34.3 °F 37.4 °F 87% 29.76 in 5.0 mi WNW 11.5 mph - N/A   Overcast
11:35 PM 41.0 °F 34.7 °F 37.4 °F 87% 29.76 in 7.0 mi WNW 10.4 mph - N/A   Overcast
11:55 PM 41.0 °F 34.7 °F 37.4 °F 87% 29.76 in 3.0 mi WNW 10.4 mph - N/A   Overcast